| time (UTC) | temp F | wind direction | speed MPH | gust MPH | rain 1hr in | rain 24hr in | rain mn in | humidity % | barometer mb |
| 20260508054410 | 46 | 15 | 0.0 | 0.0 | 0.00 | 0.00 | 0.00 | 99 | 1014.8 |
| 20260508053906 | 46 | 15 | 0.0 | 0.0 | 0.00 | 0.00 | 0.00 | 99 | 1014.6 |
| 20260508053403 | 46 | 15 | 0.0 | 0.0 | 0.00 | 0.00 | 0.00 | 99 | 1014.6 |
| 20260508052901 | 47 | 15 | 0.0 | 0.0 | 0.00 | 0.00 | 0.00 | 99 | 1014.7 |
| 20260508052359 | 47 | 15 | 0.0 | 0.0 | 0.00 | 0.00 | 0.00 | 99 | 1014.6 |
| 20260508051854 | 47 | 15 | 0.0 | 0.0 | 0.00 | 0.00 | 0.00 | 99 | 1014.7 |
| 20260508051350 | 47 | 15 | 0.0 | 0.0 | 0.00 | 0.00 | 0.00 | 99 | 1014.6 |
| 20260508050846 | 47 | 15 | 0.0 | 0.0 | 0.00 | 0.00 | 0.00 | 99 | 1014.6 |
| 20260508050344 | 47 | 15 | 0.0 | 0.0 | 0.00 | 0.00 | 0.00 | 99 | 1014.4 |
| 20260508045839 | 47 | 15 | 0.0 | 0.0 | 0.00 | 0.00 | 0.00 | 99 | 1014.5 |
| 20260508045337 | 47 | 15 | 0.0 | 0.0 | 0.00 | 0.00 | 0.00 | 99 | 1014.6 |
| 20260508044835 | 48 | 15 | 0.0 | 0.0 | 0.00 | 0.00 | 0.00 | 99 | 1014.7 |
| 20260508044331 | 48 | 15 | 0.0 | 0.0 | 0.00 | 0.00 | 0.00 | 99 | 1014.4 |
| 20260508043827 | 48 | 15 | 0.0 | 0.0 | 0.00 | 0.00 | 0.00 | 99 | 1014.2 |
| 20260508043325 | 48 | 15 | 0.0 | 0.0 | 0.00 | 0.00 | 0.00 | 99 | 1014.2 |
| 20260508042821 | 48 | 15 | 0.0 | 0.0 | 0.00 | 0.00 | 0.00 | 99 | 1014.1 |
| 20260508042319 | 48 | 15 | 0.0 | 0.0 | 0.00 | 0.00 | 0.00 | 99 | 1014.0 |
| 20260508041815 | 48 | 15 | 0.0 | 0.0 | 0.00 | 0.00 | 0.00 | 99 | 1013.8 |
| 20260508041312 | 48 | 15 | 0.0 | 0.0 | 0.00 | 0.00 | 0.00 | 99 | 1014.0 |
| 20260508040808 | 48 | 15 | 0.0 | 0.0 | 0.00 | 0.00 | 0.00 | 99 | 1014.0 |
| 20260508040306 | 49 | 15 | 0.0 | 0.0 | 0.00 | 0.00 | 0.00 | 99 | 1013.9 |
| 20260508035803 | 49 | 15 | 0.0 | 0.0 | 0.00 | 0.00 | 0.00 | 99 | 1013.9 |
| 20260508035300 | 49 | 15 | 0.0 | 0.0 | 0.00 | 0.00 | 0.00 | 99 | 1014.0 |
| 20260508034756 | 49 | 15 | 0.0 | 0.0 | 0.00 | 0.00 | 0.00 | 99 | 1013.9 |
| 20260508034254 | 49 | 15 | 0.0 | 0.0 | 0.00 | 0.00 | 0.00 | 99 | 1013.9 |
| 20260508033751 | 49 | 15 | 0.0 | 0.0 | 0.00 | 0.00 | 0.00 | 99 | 1013.6 |
| 20260508033249 | 49 | 15 | 0.0 | 0.0 | 0.00 | 0.00 | 0.00 | 99 | 1013.8 |
| 20260508032746 | 49 | 15 | 0.0 | 0.0 | 0.00 | 0.00 | 0.00 | 99 | 1013.9 |
| 20260508032243 | 50 | 15 | 0.0 | 0.0 | 0.00 | 0.00 | 0.00 | 99 | 1014.0 |
| 20260508031740 | 50 | 15 | 0.0 | 0.0 | 0.00 | 0.00 | 0.00 | 99 | 1013.8 |
| 20260508031237 | 50 | 15 | 0.0 | 0.0 | 0.00 | 0.00 | 0.00 | 99 | 1013.6 |
| 20260508030733 | 50 | 15 | 0.0 | 0.0 | 0.00 | 0.00 | 0.00 | 99 | 1013.6 |
| 20260508030231 | 51 | 15 | 0.0 | 0.0 | 0.00 | 0.00 | 0.00 | 99 | 1013.8 |
| 20260508025727 | 51 | 15 | 0.0 | 0.0 | 0.00 | 0.00 | 0.00 | 99 | 1013.6 |
| 20260508025224 | 51 | 15 | 0.0 | 0.0 | 0.00 | 0.00 | 0.00 | 99 | 1013.5 |
| 20260508024720 | 51 | 15 | 0.0 | 0.0 | 0.00 | 0.00 | 0.00 | 99 | 1013.6 |
| 20260508024217 | 51 | 15 | 0.0 | 0.0 | 0.00 | 0.00 | 0.00 | 99 | 1013.6 |
| 20260508023714 | 51 | 15 | 0.0 | 0.0 | 0.00 | 0.00 | 0.00 | 99 | 1013.5 |
| 20260508023212 | 51 | 15 | 0.0 | 0.0 | 0.00 | 0.00 | 0.00 | 99 | 1013.3 |
| 20260508022707 | 51 | 15 | 0.0 | 0.0 | 0.00 | 0.00 | 0.00 | 99 | 1013.3 |
| 20260508022204 | 51 | 15 | 0.0 | 0.0 | 0.00 | 0.00 | 0.00 | 99 | 1013.2 |
| 20260508021700 | 51 | 15 | 0.0 | 0.0 | 0.00 | 0.00 | 0.00 | 99 | 1013.3 |
| 20260508021156 | 52 | 15 | 0.0 | 0.0 | 0.00 | 0.00 | 0.00 | 99 | 1013.0 |
| 20260508020654 | 52 | 15 | 0.0 | 0.0 | 0.00 | 0.00 | 0.00 | 99 | 1013.0 |
| 20260508020151 | 52 | 15 | 0.0 | 0.0 | 0.00 | 0.00 | 0.00 | 99 | 1012.8 |
| 20260508015648 | 52 | 15 | 0.0 | 0.0 | 0.00 | 0.00 | 0.00 | 99 | 1012.9 |
| 20260508015145 | 53 | 15 | 0.0 | 0.0 | 0.00 | 0.00 | 0.00 | 99 | 1012.7 |
| 20260508014641 | 53 | 15 | 0.0 | 0.0 | 0.00 | 0.00 | 0.00 | 99 | 1012.6 |
| 20260508014137 | 53 | 15 | 0.0 | 0.0 | 0.00 | 0.00 | 0.00 | 99 | 1012.4 |
| 20260508013634 | 53 | 15 | 0.0 | 0.0 | 0.00 | 0.00 | 0.00 | 99 | 1012.3 |
| 20260508013131 | 53 | 15 | 0.0 | 0.0 | 0.00 | 0.00 | 0.00 | 99 | 1012.3 |
| 20260508012629 | 53 | 15 | 0.0 | 0.0 | 0.00 | 0.00 | 0.00 | 99 | 1012.2 |
| 20260508012125 | 54 | 15 | 0.0 | 0.0 | 0.00 | 0.00 | 0.00 | 99 | 1012.1 |
| 20260508011624 | 54 | 15 | 0.0 | 0.0 | 0.00 | 0.00 | 0.00 | 99 | 1012.1 |
| 20260508011121 | 54 | 15 | 0.0 | 0.0 | 0.00 | 0.00 | 0.00 | 99 | 1012.2 |
| 20260508010617 | 54 | 15 | 0.0 | 0.0 | 0.00 | 0.00 | 0.00 | 99 | 1011.9 |
| 20260508010116 | 55 | 15 | 0.0 | 0.0 | 0.00 | 0.00 | 0.00 | 99 | 1012.2 |
| 20260508005612 | 55 | 15 | 0.0 | 0.0 | 0.00 | 0.00 | 0.00 | 99 | 1012.1 |
| 20260508005108 | 55 | 15 | 0.0 | 0.0 | 0.00 | 0.00 | 0.00 | 99 | 1011.8 |
| 20260508004604 | 55 | 15 | 0.0 | 0.0 | 0.00 | 0.00 | 0.00 | 99 | 1011.9 |
| 20260508004101 | 56 | 15 | 0.0 | 0.0 | 0.00 | 0.00 | 0.00 | 99 | 1012.1 |
| 20260508003557 | 56 | 15 | 0.0 | 0.0 | 0.00 | 0.00 | 0.00 | 99 | 1011.9 |
| 20260508003055 | 56 | 15 | 0.0 | 0.0 | 0.00 | 0.00 | 0.00 | 99 | 1011.9 |
| 20260508002551 | 56 | 15 | 0.0 | 0.0 | 0.00 | 0.00 | 0.00 | 99 | |
| 20260508002049 | 56 | 15 | 0.0 | 0.0 | 0.00 | 0.00 | 0.00 | 99 | 1012.1 |
| 20260508001544 | 56 | 15 | 0.0 | 0.0 | 0.00 | 0.00 | 0.00 | 99 | 1012.1 |
| 20260508001041 | 56 | 15 | 0.0 | 0.0 | 0.00 | 0.00 | 0.00 | 99 | 1011.9 |
| 20260508000537 | 56 | 15 | 0.0 | 0.0 | 0.00 | 0.00 | 0.00 | 99 | 1012.0 |
| 20260508000034 | 56 | 5 | 0.0 | 0.0 | 0.00 | 0.00 | 0.00 | 99 | 1012.0 |
| 20260507235531 | 56 | 5 | 0.0 | 0.0 | 0.00 | 0.00 | 0.00 | 99 | 1011.7 |
| 20260507235029 | 56 | 357 | 0.0 | 0.0 | 0.00 | 0.00 | 0.00 | 99 | 1011.6 |
| 20260507234524 | 56 | 352 | 0.0 | 0.0 | 0.00 | 0.00 | 0.00 | 99 | |
| 20260507234021 | 57 | 344 | 0.0 | 0.0 | 0.00 | 0.00 | 0.00 | 99 | |
| 20260507233518 | 57 | 2 | 0.0 | 0.0 | 0.00 | 0.00 | 0.00 | 99 | |
| 20260507233017 | 56 | 2 | 0.0 | 0.0 | 0.00 | 0.00 | 0.00 | 99 | 1011.1 |
| 20260507232512 | 56 | 2 | 0.0 | 0.0 | 0.00 | 0.00 | 0.00 | 98 | 1011.1 |
| 20260507232010 | 56 | 338 | 0.0 | 0.0 | 0.00 | 0.00 | 0.00 | 98 | 1011.2 |
| 20260507231506 | 57 | 7 | 0.0 | 0.0 | 0.00 | 0.00 | 0.00 | 99 | 1010.8 |
| 20260507231003 | 57 | 7 | 0.0 | 1.0 | 0.00 | 0.00 | 0.00 | 98 | 1010.9 |
| 20260507230500 | 57 | 4 | 0.0 | 0.0 | 0.00 | 0.00 | 0.00 | 98 | 1010.9 |
| 20260507225955 | 57 | 358 | 0.0 | 0.0 | 0.00 | 0.00 | 0.00 | 98 | 1010.7 |
| 20260507225452 | 57 | 2 | 0.0 | 0.0 | 0.00 | 0.00 | 0.00 | 98 | 1010.7 |
| 20260507224948 | 56 | 21 | 0.0 | 3.0 | 0.00 | 0.00 | 0.00 | 98 | 1010.8 |
| 20260507224444 | 57 | 351 | 0.0 | 0.0 | 0.00 | 0.00 | 0.00 | 98 | 1010.8 |
| 20260507223941 | 57 | 42 | 2.0 | 3.0 | 0.00 | 0.00 | 0.00 | 98 | 1010.7 |
| 20260507223437 | 57 | 344 | 0.0 | 1.0 | 0.00 | 0.00 | 0.00 | 98 | 1010.7 |
| 20260507222934 | 57 | 36 | 1.0 | 3.0 | 0.00 | 0.00 | 0.00 | 98 | 1010.7 |
| 20260507222431 | 57 | 8 | 1.0 | 2.0 | 0.00 | 0.00 | 0.00 | 99 | 1010.5 |
| 20260507221927 | 57 | 30 | 1.0 | 2.0 | 0.00 | 0.00 | 0.00 | 99 | 1010.6 |
| 20260507221424 | 56 | 352 | 0.0 | 1.0 | 0.00 | 0.00 | 0.00 | 99 | 1010.5 |
| 20260507220920 | 57 | 356 | 0.0 | 0.0 | 0.00 | 0.00 | 0.00 | 99 | 1010.5 |
| 20260507220418 | 57 | 16 | 0.0 | 0.0 | 0.00 | 0.00 | 0.00 | 99 | 1010.3 |
| 20260507215915 | 57 | 335 | 0.0 | 2.0 | 0.00 | 0.00 | 0.00 | 99 | 1010.3 |
| 20260507215411 | 57 | 354 | 0.0 | 0.0 | 0.00 | 0.00 | 0.00 | 99 | 1010.2 |
| 20260507214909 | 57 | 61 | 2.0 | 2.0 | 0.00 | 0.00 | 0.00 | 98 | 1010.2 |
| 20260507214406 | 57 | 41 | 1.0 | 3.0 | 0.00 | 0.00 | 0.00 | 98 | 1010.5 |
| 20260507213901 | 57 | 9 | 1.0 | 1.0 | 0.00 | 0.00 | 0.00 | 98 | 1010.6 |
| 20260507213358 | 57 | 317 | 0.0 | 3.0 | 0.00 | 0.00 | 0.00 | 98 | 1010.4 |
| 20260507212855 | 58 | 97 | 3.0 | 4.0 | 0.00 | 0.00 | 0.00 | 98 | 1010.2 |
| 20260507212351 | 58 | 59 | 3.0 | 3.0 | 0.00 | 0.00 | 0.00 | 99 | 1010.2 |
| 20260507211848 | 57 | 310 | 0.0 | 3.0 | 0.00 | 0.00 | 0.00 | 99 | |
| 20260507211344 | 57 | 354 | 0.0 | 1.0 | 0.00 | 0.00 | 0.00 | 99 | 1010.4 |
| 20260507210841 | 57 | 66 | 3.0 | 4.0 | 0.00 | 0.00 | 0.00 | 99 | 1010.4 |
| 20260507210338 | 56 | 359 | 0.0 | 2.0 | 0.00 | 0.00 | 0.00 | 99 | 1010.3 |
| 20260507205835 | 56 | 72 | 2.0 | 3.0 | 0.00 | 0.00 | 0.00 | 99 | 1010.3 |
| 20260507205332 | 56 | 359 | 0.0 | 1.0 | 0.00 | 0.00 | 0.00 | 99 | 1010.5 |
| 20260507204828 | 56 | 98 | 3.0 | 6.0 | 0.00 | 0.00 | 0.00 | 99 | 1010.3 |
| 20260507204325 | 56 | 67 | 6.0 | 7.0 | 0.00 | 0.00 | 0.00 | 99 | 1010.4 |
| 20260507203823 | 56 | 31 | 3.0 | 4.0 | 0.00 | 0.00 | 0.00 | 99 | 1010.2 |
| 20260507203321 | 56 | 348 | 0.0 | 0.0 | 0.00 | 0.00 | 0.00 | 99 | 1010.1 |
| 20260507202817 | 56 | 74 | 0.0 | 0.0 | 0.00 | 0.00 | 0.00 | 99 | 1010.1 |
| 20260507202313 | 56 | 22 | 0.0 | 1.0 | 0.00 | 0.00 | 0.00 | 99 | 1010.6 |
| 20260507201808 | 56 | 3 | 0.0 | 0.0 | 0.00 | 0.00 | 0.00 | 99 | 1010.5 |
| 20260507201305 | 56 | 359 | 0.0 | 1.0 | 0.00 | 0.00 | 0.00 | 99 | 1010.5 |
| 20260507200801 | 55 | 345 | 0.0 | 2.0 | 0.00 | 0.00 | 0.00 | 99 | 1010.4 |
| 20260507200257 | 56 | 42 | 3.0 | 6.0 | 0.00 | 0.00 | 0.00 | 99 | 1010.6 |
| 20260507195753 | 56 | 20 | 1.0 | 3.0 | 0.00 | 0.00 | 0.00 | 99 | 1010.2 |
| 20260507195251 | 56 | 18 | 0.0 | 2.0 | 0.00 | 0.00 | 0.00 | 99 | 1010.2 |
| 20260507194748 | 56 | 84 | 5.0 | 7.0 | 0.00 | 0.00 | 0.00 | 98 | 1010.5 |
| 20260507194243 | 56 | 2 | 1.0 | 4.0 | 0.00 | 0.00 | 0.00 | 97 | |
| 20260507193740 | 57 | 23 | 0.0 | 0.0 | 0.00 | 0.00 | 0.00 | 97 | |
| 20260507193237 | 57 | 106 | 4.0 | 6.0 | 0.00 | 0.00 | 0.00 | 96 | 1010.1 |
| 20260507192733 | 57 | 358 | 3.0 | 3.0 | 0.00 | 0.00 | 0.00 | 96 | 1010.1 |
| 20260507192230 | 57 | 35 | 1.0 | 3.0 | 0.00 | 0.00 | 0.00 | 96 | 1010.1 |
| 20260507191726 | 57 | 20 | 0.0 | 3.0 | 0.00 | 0.00 | 0.00 | 96 | 1010.4 |
| 20260507191224 | 57 | 18 | 0.0 | 3.0 | 0.00 | 0.00 | 0.00 | 96 | 1010.4 |
| 20260507190720 | 57 | 57 | 1.0 | 2.0 | 0.00 | 0.00 | 0.00 | 96 | |
| 20260507190219 | 57 | 350 | 0.0 | 4.0 | 0.00 | 0.00 | 0.00 | 96 | |
| 20260507185717 | 58 | 21 | 2.0 | 3.0 | 0.00 | 0.00 | 0.00 | 97 | |
| 20260507185213 | 57 | 352 | 1.0 | 2.0 | 0.00 | 0.00 | 0.00 | 97 | |
| 20260507184711 | 57 | 347 | 0.0 | 7.0 | 0.00 | 0.00 | 0.00 | 97 | |
| 20260507184209 | 58 | 18 | 1.0 | 2.0 | 0.00 | 0.00 | 0.00 | 97 | |
| 20260507183705 | 58 | 353 | 1.0 | 4.0 | 0.00 | 0.00 | 0.00 | 97 | |
| 20260507183202 | 58 | 20 | 1.0 | 2.0 | 0.00 | 0.00 | 0.00 | 97 | |
| 20260507182659 | 57 | 58 | 4.0 | 7.0 | 0.00 | 0.00 | 0.00 | 98 | |
| 20260507182155 | 58 | 45 | 2.0 | 3.0 | 0.00 | 0.00 | 0.00 | 98 | 1010.2 |
| 20260507181651 | 58 | 55 | 1.0 | 4.0 | 0.00 | 0.00 | 0.00 | 98 | 1010.2 |
| 20260507181148 | 59 | 333 | 0.0 | 0.0 | 0.00 | 0.00 | 0.00 | 98 | |
| 20260507180644 | 58 | 353 | 0.0 | 3.0 | 0.00 | 0.00 | 0.00 | 98 | |
| 20260507180142 | 58 | 352 | 2.0 | 4.0 | 0.00 | 0.00 | 0.00 | 99 | |
| 20260507175637 | 58 | 27 | 0.0 | 3.0 | 0.00 | 0.00 | 0.00 | 99 | |
| 20260507175135 | 59 | 52 | 2.0 | 6.0 | 0.00 | 0.00 | 0.00 | 99 | |
| 20260507174631 | 59 | 23 | 1.0 | 6.0 | 0.00 | 0.00 | 0.00 | 99 | |
| 20260507174130 | 60 | 21 | 1.0 | 3.0 | 0.00 | 0.00 | 0.00 | 98 | |
| 20260507173627 | 60 | 349 | 0.0 | 2.0 | 0.00 | 0.00 | 0.00 | 98 | |
| 20260507173124 | 60 | 19 | 0.0 | 2.0 | 0.00 | 0.00 | 0.00 | 98 | |
| 20260507172620 | 60 | 62 | 1.0 | 3.0 | 0.00 | 0.00 | 0.00 | 98 | |
| 20260507172117 | 60 | 326 | 0.0 | 6.0 | 0.00 | 0.00 | 0.00 | 99 | |
| 20260507171612 | 60 | 328 | 1.0 | 3.0 | 0.00 | 0.00 | 0.00 | 98 | |
| 20260507171109 | 61 | 332 | 2.0 | 3.0 | 0.00 | 0.00 | 0.00 | 99 | |
| 20260507170606 | 61 | 332 | 2.0 | 2.0 | 0.00 | 0.00 | 0.00 | 99 | |
| 20260507170103 | 61 | 27 | 0.0 | 0.0 | 0.00 | 0.00 | 0.00 | 99 | |
| 20260507165558 | 61 | 114 | 4.0 | 4.0 | 0.00 | 0.00 | 0.00 | 99 | |
| 20260507165055 | 61 | 30 | 2.0 | 6.0 | 0.00 | 0.00 | 0.00 | 99 | |
| 20260507164551 | 62 | 83 | 0.0 | 2.0 | 0.00 | 0.00 | 0.00 | 99 | |
| 20260507164049 | 62 | 66 | 0.0 | 0.0 | 0.00 | 0.00 | 0.00 | 99 | |
| 20260507163546 | 62 | 87 | 1.0 | 4.0 | 0.00 | 0.00 | 0.00 | 99 | |
| 20260507163044 | 62 | 338 | 0.0 | 0.0 | 0.00 | 0.00 | 0.00 | 99 | |
| 20260507162544 | 62 | 337 | 0.0 | 0.0 | 0.00 | 0.00 | 0.00 | 99 | |
| 20260507162041 | 62 | 5 | 0.0 | 0.0 | 0.00 | 0.00 | 0.00 | 99 | |
| 20260507161539 | 62 | 358 | 0.0 | 0.0 | 0.00 | 0.00 | 0.00 | 99 | |
| 20260507161034 | 62 | 345 | 0.0 | 0.0 | 0.00 | 0.00 | 0.00 | 99 | |
| 20260507160530 | 62 | 357 | 0.0 | 0.0 | 0.00 | 0.00 | 0.00 | 99 | 1010.1 |
| 20260507160027 | 62 | 14 | 0.0 | 0.0 | 0.00 | 0.00 | 0.00 | 99 | 1010.1 |
| 20260507155522 | 62 | 340 | 0.0 | 0.0 | 0.00 | 0.00 | 0.00 | 99 | |
| 20260507155020 | 62 | 341 | 0.0 | 0.0 | 0.00 | 0.00 | 0.00 | 99 | 1010.4 |
| 20260507154516 | 62 | 1 | 0.0 | 0.0 | 0.00 | 0.00 | 0.00 | 99 | 1010.4 |
| 20260507154013 | 62 | 349 | 0.0 | 0.0 | 0.00 | 0.00 | 0.00 | 99 | |
| 20260507153510 | 63 | 342 | 0.0 | 0.0 | 0.00 | 0.00 | 0.00 | 99 | |
| 20260507153006 | 64 | 19 | 0.0 | 0.0 | 0.00 | 0.00 | 0.00 | 99 | |
| 20260507152502 | 64 | 7 | 0.0 | 0.0 | 0.00 | 0.00 | 0.00 | 99 | |
| 20260507151959 | 64 | 8 | 0.0 | 0.0 | 0.00 | 0.00 | 0.00 | 99 | |
| 20260507151455 | 64 | 335 | 0.0 | 0.0 | 0.00 | 0.00 | 0.00 | 99 | |
| 20260507150952 | 65 | 310 | 0.0 | 0.0 | 0.00 | 0.00 | 0.00 | 99 | |
| 20260507150449 | 65 | 310 | 0.0 | 0.0 | 0.00 | 0.00 | 0.00 | 99 | |
| 20260507145945 | 64 | 346 | 0.0 | 0.0 | 0.00 | 0.00 | 0.00 | 99 | |
| 20260507145441 | 64 | 346 | 0.0 | 0.0 | 0.00 | 0.00 | 0.00 | 99 | 1009.8 |
| 20260507144938 | 64 | 48 | 0.0 | 0.0 | 0.00 | 0.00 | 0.00 | 99 | 1009.8 |
| 20260507144435 | 64 | 17 | 0.0 | 0.0 | 0.00 | 0.00 | 0.00 | 99 | |
| 20260507143932 | 64 | 7 | 0.0 | 0.0 | 0.00 | 0.00 | 0.00 | 99 | |
| 20260507143430 | 64 | 358 | 0.0 | 0.0 | 0.00 | 0.00 | 0.00 | 99 | |
| 20260507142926 | 64 | 358 | 0.0 | 0.0 | 0.00 | 0.00 | 0.00 | 99 | |
| 20260507142422 | 64 | 358 | 0.0 | 0.0 | 0.00 | 0.00 | 0.00 | 99 | |
| 20260507141919 | 64 | 358 | 0.0 | 0.0 | 0.00 | 0.00 | 0.00 | 99 | |
| 20260507141415 | 64 | 358 | 0.0 | 0.0 | 0.00 | 0.00 | 0.00 | 99 | |
| 20260507140912 | 64 | 358 | 0.0 | 0.0 | 0.00 | 0.00 | 0.00 | 99 | |
| 20260507140408 | 64 | 358 | 0.0 | 0.0 | 0.00 | 0.00 | 0.00 | 99 | |
| 20260507135907 | 63 | 358 | 0.0 | 0.0 | 0.00 | 0.00 | 0.00 | 99 | |
| 20260507135403 | 63 | 358 | 0.0 | 0.0 | 0.00 | 0.00 | 0.00 | 99 | |
| 20260507134900 | 63 | 340 | 0.0 | 0.0 | 0.00 | 0.00 | 0.00 | 99 | |
| 20260507134356 | 63 | 352 | 0.0 | 0.0 | 0.00 | 0.00 | 0.00 | 99 | |
| 20260507133852 | 63 | 340 | 0.0 | 0.0 | 0.00 | 0.00 | 0.00 | 99 | |
| 20260507133348 | 63 | 332 | 0.0 | 0.0 | 0.00 | 0.00 | 0.00 | 99 | |
| 20260507132847 | 63 | 320 | 0.0 | 0.0 | 0.00 | 0.00 | 0.00 | 99 | |
| 20260507132343 | 63 | 320 | 0.0 | 0.0 | 0.00 | 0.00 | 0.00 | 99 | |
| 20260507131840 | 63 | 310 | 0.0 | 0.0 | 0.00 | 0.00 | 0.00 | 99 | |
| 20260507131337 | 63 | 310 | 0.0 | 0.0 | 0.00 | 0.00 | 0.00 | 99 | |
| 20260507130834 | 63 | 310 | 0.0 | 0.0 | 0.00 | 0.00 | 0.00 | 99 | |
| 20260507130331 | 63 | 310 | 0.0 | 0.0 | 0.00 | 0.00 | 0.00 | 99 | |
| 20260507125830 | 63 | 310 | 0.0 | 0.0 | 0.00 | 0.00 | 0.00 | 99 | 1011.3 |
| 20260507125327 | 63 | 306 | 0.0 | 0.0 | 0.00 | 0.00 | 0.00 | 99 | 1011.3 |
| 20260507124824 | 63 | 304 | 0.0 | 0.0 | 0.00 | 0.00 | 0.00 | 99 | 1011.1 |
| 20260507124320 | 63 | 301 | 0.0 | 0.0 | 0.00 | 0.00 | 0.00 | 99 | |
| 20260507123819 | 63 | 301 | 0.0 | 0.0 | 0.00 | 0.00 | 0.00 | 99 | |
| 20260507123316 | 63 | 300 | 0.0 | 0.0 | 0.00 | 0.00 | 0.00 | 99 | |
| 20260507122812 | 63 | 95 | 0.0 | 0.0 | 0.00 | 0.00 | 0.00 | 99 | 1010.8 |
| 20260507122308 | 63 | 115 | 0.0 | 0.0 | 0.00 | 0.00 | 0.00 | 99 | 1010.8 |
| 20260507121804 | 63 | 311 | 0.0 | 0.0 | 0.00 | 0.00 | 0.00 | 99 | 1010.6 |
| 20260507121300 | 63 | 310 | 0.0 | 0.0 | 0.00 | 0.00 | 0.00 | 99 | |
| 20260507120756 | 63 | 328 | 0.0 | 0.0 | 0.00 | 0.00 | 0.00 | 99 | 1010.9 |
| 20260507120253 | 63 | 317 | 0.0 | 0.0 | 0.00 | 0.00 | 0.00 | 99 | 1010.9 |
| 20260507115749 | 63 | 308 | 0.0 | 0.0 | 0.00 | 0.00 | 0.00 | 99 | 1010.9 |
| 20260507115245 | 63 | 311 | 0.0 | 0.0 | 0.00 | 0.00 | 0.00 | 99 | 1010.9 |
| 20260507114740 | 63 | 311 | 0.0 | 0.0 | 0.00 | 0.00 | 0.00 | 99 | 1010.8 |
| 20260507114238 | 63 | 326 | 0.0 | 0.0 | 0.00 | 0.00 | 0.00 | 99 | |
| 20260507113736 | 63 | 325 | 0.0 | 0.0 | 0.00 | 0.00 | 0.00 | 99 | |
| 20260507113232 | 63 | 325 | 0.0 | 0.0 | 0.00 | 0.00 | 0.00 | 99 | |
| 20260507112730 | 63 | 325 | 0.0 | 0.0 | 0.00 | 0.00 | 0.00 | 99 | |
| 20260507112227 | 63 | 325 | 0.0 | 0.0 | 0.00 | 0.00 | 0.00 | 99 | |
| 20260507111724 | 0 | 0.0 | 0.0 | 0.00 | 0.00 | 0.00 | |||
| 20260507111221 | 0 | 0.0 | 0.0 | 0.00 | 0.00 | 0.00 | |||
| 20260507110716 | 0 | 0.0 | 0.0 | 0.00 | 0.00 | 0.00 | |||
| 20260507110213 | 0 | 0.0 | 0.0 | 0.00 | 0.00 | 0.00 | |||
| 20260507105711 | 0 | 0.0 | 0.0 | 0.00 | 0.00 | 0.00 | |||
| 20260507105206 | 0 | 0.0 | 0.0 | 0.00 | 0.00 | 0.00 | |||
| 20260507104704 | 0 | 0.0 | 0.0 | 0.00 | 0.00 | 0.00 | |||
| 20260507104200 | 0 | 0.0 | 0.0 | 0.00 | 0.00 | 0.00 | |||
| 20260507103656 | 0 | 0.0 | 0.0 | 0.00 | 0.00 | 0.00 | |||
| 20260507103153 | 0 | 0.0 | 0.0 | 0.00 | 0.00 | 0.00 | |||
| 20260507102649 | 0 | 0.0 | 0.0 | 0.00 | 0.00 | 0.00 | |||
| 20260507102146 | 0 | 0.0 | 0.0 | 0.00 | 0.00 | 0.00 | |||
| 20260507101641 | 0 | 0.0 | 0.0 | 0.00 | 0.00 | 0.00 | |||
| 20260507101137 | 0 | 0.0 | 0.0 | 0.00 | 0.00 | 0.00 | |||
| 20260507100635 | 0 | 0.0 | 0.0 | 0.00 | 0.00 | 0.00 | |||
| 20260507100133 | 0 | 0.0 | 0.0 | 0.00 | 0.00 | 0.00 | |||
| 20260507095631 | 0 | 0.0 | 0.0 | 0.00 | 0.00 | 0.00 | |||
| 20260507095127 | 63 | 325 | 0.0 | 0.0 | 0.00 | 0.00 | 0.00 | 99 | |
| 20260507094624 | 63 | 325 | 0.0 | 0.0 | 0.00 | 0.00 | 0.00 | 99 | |
| 20260507094121 | 63 | 325 | 0.0 | 0.0 | 0.00 | 0.00 | 0.00 | 99 | |
| 20260507093618 | 63 | 339 | 0.0 | 0.0 | 0.00 | 0.00 | 0.00 | 99 | |
| 20260507093117 | 63 | 339 | 0.0 | 0.0 | 0.00 | 0.00 | 0.00 | 99 | |
| 20260507092612 | 63 | 339 | 0.0 | 0.0 | 0.00 | 0.00 | 0.00 | 99 | |
| 20260507092109 | 63 | 279 | 0.0 | 0.0 | 0.00 | 0.00 | 0.00 | 99 | |
| 20260507091606 | 63 | 279 | 0.0 | 0.0 | 0.00 | 0.00 | 0.00 | 99 | |
| 20260507091102 | 63 | 329 | 0.0 | 0.0 | 0.00 | 0.00 | 0.00 | 99 | |
| 20260507090558 | 63 | 333 | 0.0 | 0.0 | 0.00 | 0.00 | 0.00 | 99 | |
| 20260507090055 | 63 | 310 | 0.0 | 0.0 | 0.00 | 0.00 | 0.00 | 99 | |
| 20260507085552 | 63 | 304 | 0.0 | 0.0 | 0.00 | 0.00 | 0.00 | 99 | |
| 20260507085049 | 63 | 304 | 0.0 | 0.0 | 0.00 | 0.00 | 0.00 | 99 | |
| 20260507084545 | 63 | 304 | 0.0 | 0.0 | 0.00 | 0.00 | 0.00 | 99 | |
| 20260507084042 | 63 | 304 | 0.0 | 0.0 | 0.00 | 0.00 | 0.00 | 99 | |
| 20260507083539 | 63 | 304 | 0.0 | 0.0 | 0.00 | 0.00 | 0.00 | 99 | |
| 20260507083036 | 63 | 307 | 0.0 | 0.0 | 0.00 | 0.00 | 0.00 | 99 | |
| 20260507082532 | 63 | 308 | 0.0 | 0.0 | 0.00 | 0.00 | 0.00 | 99 | |
| 20260507082028 | 63 | 308 | 0.0 | 0.0 | 0.00 | 0.00 | 0.00 | 99 | |
| 20260507081525 | 63 | 307 | 0.0 | 0.0 | 0.00 | 0.00 | 0.00 | 99 | |
| 20260507081022 | 63 | 278 | 0.0 | 0.0 | 0.00 | 0.00 | 0.00 | 99 | |
| 20260507080517 | 63 | 281 | 0.0 | 0.0 | 0.00 | 0.00 | 0.00 | 99 | |
| 20260507080014 | 63 | 290 | 0.0 | 0.0 | 0.00 | 0.00 | 0.00 | 99 | |
| 20260507075509 | 63 | 268 | 0.0 | 0.0 | 0.00 | 0.00 | 0.00 | 99 | |
| 20260507075006 | 63 | 289 | 0.0 | 0.0 | 0.00 | 0.00 | 0.00 | 99 | |
| 20260507074503 | 63 | 291 | 0.0 | 0.0 | 0.00 | 0.00 | 0.00 | 99 | |
| 20260507074001 | 63 | 291 | 0.0 | 0.0 | 0.00 | 0.00 | 0.00 | 99 | |
| 20260507073457 | 63 | 291 | 0.0 | 0.0 | 0.00 | 0.00 | 0.00 | 99 | |
| 20260507072953 | 63 | 291 | 0.0 | 0.0 | 0.00 | 0.00 | 0.00 | 99 | |
| 20260507072451 | 63 | 303 | 0.0 | 0.0 | 0.00 | 0.00 | 0.00 | 99 | |
| 20260507071948 | 63 | 303 | 0.0 | 0.0 | 0.00 | 0.00 | 0.00 | 99 | |
| 20260507071445 | 63 | 306 | 0.0 | 0.0 | 0.00 | 0.00 | 0.00 | 99 | |
| 20260507070942 | 63 | 303 | 0.0 | 0.0 | 0.00 | 0.00 | 0.00 | 99 | |
| 20260507070440 | 63 | 304 | 0.0 | 0.0 | 0.00 | 0.00 | 0.00 | 99 | |
| 20260507065936 | 63 | 310 | 0.0 | 0.0 | 0.00 | 0.00 | 0.00 | 99 | |
| 20260507065433 | 0 | 0.0 | 0.0 | 0.00 | 0.00 | 0.00 | |||
| 20260507064930 | 0 | 0.0 | 0.0 | 0.00 | 0.00 | 0.00 | |||
| 20260507064428 | 63 | 307 | 0.0 | 0.0 | 0.00 | 0.00 | 0.00 | 99 | |
| 20260507063926 | 63 | 307 | 0.0 | 0.0 | 0.00 | 0.00 | 0.00 | 99 | |
| 20260507063423 | 63 | 310 | 0.0 | 0.0 | 0.00 | 0.00 | 0.00 | 99 | |
| 20260507062920 | 63 | 304 | 0.0 | 0.0 | 0.00 | 0.00 | 0.00 | 99 | |
| 20260507062417 | 63 | 304 | 0.0 | 0.0 | 0.00 | 0.00 | 0.00 | 99 | |
| 20260507061914 | 63 | 314 | 0.0 | 0.0 | 0.00 | 0.00 | 0.00 | 99 | |
| 20260507061412 | 0 | 0.0 | 0.0 | 0.00 | 0.00 | 0.00 | |||
| 20260507060910 | 63 | 297 | 0.0 | 0.0 | 0.00 | 0.00 | 0.00 | 99 | |
| 20260507060406 | 63 | 297 | 0.0 | 0.0 | 0.00 | 0.00 | 0.00 | 99 | |
| 20260507055903 | 63 | 296 | 0.0 | 0.0 | 0.00 | 0.00 | 0.00 | 99 | |
| 20260507055358 | 63 | 300 | 0.0 | 0.0 | 0.00 | 0.00 | 0.00 | 99 | |
| 20260507054856 | 63 | 308 | 0.0 | 0.0 | 0.00 | 0.00 | 0.00 | 99 |